map of LIBV home
Great Circle Mapper logo
LIBV - Airport
Location
City:  Gioia del Colle, Apulia, Italy
Name:Gioia del Colle AB
Old (Alt.):Antonio Ramirez
ICAO:LIBV

Details
Type:Airport (Aerodrome, Airfield)
Use:Military, International (customs port of entry)
Latitude:4046'04"N (40.767833)
Longitude:1656'00"E (16.933333)
Datum:WGS 1984
Elevation:1187 ft (362 m)
Variation:3.4E (WMM2015 magnetic declination)
Runways:2
Longest:9846 × 148 ft (3001 × 45 m), paved

Time
Time Zone:UTC+1 (DST+2)
Local Time:

Weather
METAR:LIBV 220255Z 33007KT CAVOK 04/M01 Q1029 RMK SKC VIS MIN 9999 WIND THR32 30004KT WIND THR14 34007KT BLU

Related Locations
Nearby:
Farthest:CHT: 11724 mi / 18867 km
Waitangi [Tuuta], Chatham Islands, NZ

Find:

   beyond  
but within

Other Information
Maps:
NOTAMs:
Links:
Sources:

  
flag of Italy
flag of Apulia
  

Airport Diagram

Airport diagram for LIBV

Airport diagram (OBSOLETE) from NGA

Sectional Chart

Flight Planning
at skyvector.com

Satellite Image

Google Maps Satellite View

 

Copyright © 2004-2014 Karl L. Swartz. All rights reserved.
The Great Circle Mapper name and logo are trademarks of the Great Circle Mapper.
All other trademarks mentioned herein belong to their respective owners.
Please see credits for attibutions and further copyright information.

  Follow gcmap on Facebook Follow gcmap on Twitter

hCard Microformat

Geo Microformat